User: anonymous   Login
Location: Morehead State University
(38.1872°N, 83.4339°W)
Time: 01:48:31
(UTC-04:00)
Language:

Okean 2 - Orbit

View from above orbital plane
View from above orbital plane
View from above satellite
View from above satellite

Ground track
Ground track

The orbit data is extracted from the following two-line orbital elements,

1 20510U 90018A   15208.32104226  .00000652  00000-0  53092-4 0  9998
2 20510 082.5176 114.4008 0013387 147.6144 352.0581 14.97861382377983
Epoch (UTC): 27 July 2015 07:42:18
Eccentricity: 0.0013387
inclination: 82.5176°
perigee height: 564 km
apogee height: 583 km
right ascension of ascending node: 114.4008°
argument of perigee: 147.6144°
revolutions per day: 14.97861382
mean anomaly at epoch: 352.0581°
orbit number at epoch: 37798

The dashed part of the orbit path shows where the satellite is in the earth's shadow,  

DLR